Location: Casa Rossa
(45.2389°N, 12.2056°E)
Time: 23:21:57
(UTC+00:00)

Cosmos 1437 Rocket - Pass Details

Date: 14 July 2020
Orbit: 506 x 562 km, 81.2° (Epoch: 14 August)

Event Time Altitude Azimuth Distance (km) Brightness Sun altitude
Rises 00:30:35 0° 354° (N) 2,738 7.5 -21.1°
Reaches altitude 10° 00:32:51 10° 1° (N) 1,831 6.5 -20.9°
Maximum altitude 00:36:45 47° 75° (ENE) 728 3.6 -20.7°
Enters shadow 00:38:10 32° 128° (SE) 947 3.8 -20.6°
